www.pogodaiklimat.ru

Погода и климат >> Архив погоды >> Россия >> Свердловская область >> Ивдель


АРХИВ ПОГОДЫ в Ивделе

Время (UTC), дата Ветер
(напр.,м/с)
 
Видим.   Явления Облачность Т
(С)
Тd
(С)
f
(%)
Тe
(С)
Тes
(С)
Комфортность P
(гПа)
Po
(гПа)
Тmin
(С)
Tmax
(С)
R
(мм)
R24
(мм)
S
(см)
12 12.08 СЗ 2 40 км гроза без осадков 9/8 600 м
[Cb cap Ci fib]
+17.4 +14.4 83 +18 +19 1005.4 994.4
15 12.08 С 2 27 км слаб. ливневой дождь {гроза} 10/10 360 м
[Cb cap]
+13.0 +11.7 92 +12 +12 1007.5 996.3 +18.9 2
18 12.08 С 2 10 км {гроза} 10/10 360 м
[Cb cap]
+10.5 +9.0 90 +9 +9 1009.8 998.5
21 12.08 СВ 1 10 км слаб. ливневой дождь 10/10 360 м
[Cb cap]
+9.8 +8.2 90 +9 +9 1010.7 999.3
00 13.08 СЗ 2 45 км слаб. ливневой дождь 10/10 360 м
[Cb cap]
+9.3 +8.0 92 +8 +8 1010.1 998.7
03 13.08 СЗ 2
{10}
45 км слаб. ливневой дождь 10/10 600 м
[Cb cap]
+9.4 +8.4 93 +8 +8 1010.6 999.2 +9.1 16
06 13.08 С 2 40 км гроза, ливневой дождь 10/10 600 м
[Cb cap]
+10.0 +9.0 93 +8 +8 1011.5 1000.1
09 13.08 С 2 16 км слаб. ливневой дождь {гроза} 10/10 600 м
[Cb cap]
+11.1 +9.8 92 +10 +10 1012.4 1001.1
12 13.08 С 2 10 км слаб. ливневой дождь {гроза} 10/10 600 м
[Cb cap]
+10.7 +9.2 90 +9 +9 1013.7 1002.3
15 13.08 С 2 14 км в посл. час морось {ливн. осадки} 10/10 210 м
[St]
+10.8 +9.2 90 +9 +9 1014.3 1003.0 +11.1 4
18 13.08 С 2 10 км {ливн. осадки, морось} 10/10 300 м
[St]
+10.8 +9.3 90 +9 +9 1014.8 1003.4
21 13.08 СЗ 1 10 км 10/10 360 м
[St]
+11.1 +9.5 90 +11 +11 1014.7 1003.3
00 14.08 СЗ 1 13 км 10/10 360 м
[St]
+11.1 +9.5 90 +11 +11 1014.5 1003.2
03 14.08 С 2 12 км 10/10 360 м
[St]
+12.0 +9.9 87 +11 +11 1014.6 1003.3 +10.7 0.0
06 14.08 С 1 11 км в посл. час морось 10/10 330 м
[St]
+14.0 +11.2 83 +14 +14 1014.6 1003.3
09 14.08 СВ 1 50 км 9/9 600 м
[Cb cap]
+16.4 +12.5 78 +17 +18 1014.2 1003.0
12 14.08 ЮЗ 1 50 км 9/9 600 м
[Cb cap]
+17.2 +12.8 75 +18 +19 1013.6 1002.5
15 14.08 штиль 0 40 км 9/4 600 м
[Cb cap Ac trans Ci fib]
+16.8 +13.5 81 +17 +17 1013.5 1002.4 +18.1 0.0
18 14.08 штиль 0 200 м туман 4/0
[Ac trans Ci fib]
+10.8 +9.7 93 +10 +10 1014.2 1002.8
21 14.08 штиль 0 200 м туман 3/0
[Ac trans Ci fib]
+9.2 +8.3 94 +8 +8 1013.9 1002.4
00 15.08 штиль 0 300 м туман 1/0
[Ci fib]
+10.9 +10.0 94 +10 +10 1013.7 1002.3
03 15.08 штиль 0 800 м туман 5/5 1000 м
[Sc]
+12.6 +11.7 94 +12 +14 1014.6 1003.3 +9.0
06 15.08 штиль 0 13 км {туман} 9/9 360 м
[Cb cap]
+16.1 +14.6 91 +16 +17 1014.4 1003.2
09 15.08 Ю 1 45 км 9/9 600 м
[Cb cap]
+22.5 +15.8 66 +27 +28 душно 1013.4 1002.5
12 15.08 штиль 0 12 км слаб. ливневой дождь 9/9 600 м
[Cb cap]
+20.8 +17.6 82 +24 +25 комфорт 1013.4 1002.4
15 15.08 СЗ 1 45 км {ливн. осадки} 9/8 600 м
[Cb cap Ci fib]
+19.0 +15.4 80 +21 +21 комфорт 1013.7 1002.7 +23.2 0.3
18 15.08 З 1 10 км {ливн. осадки} 9/8 1000 м
[Sc Ac trans]
+15.3 +13.6 90 +16 +16 1014.2 1003.0
21 15.08 З 1 10 км 9/8 1000 м
[Sc Ac trans]
+15.7 +12.4 81 +16 +16 1014.3 1003.2
00 16.08 ЮВ 1 50 км 8/3 1000 м
[Sc Ac trans Ci fib]
+12.4 +11.0 91 +12 +12 1014.1 1002.8
03 16.08 штиль 0 50 км 6/4 1000 м
[Sc Ac trans Ci fib]
+15.6 +13.1 85 +15 +17 1013.6 1002.4 +12.1
06 16.08 ЮВ 3 40 км 9/5 600 м
[Cb cap Ac trans Ci fib]
+21.4 +14.7 66 +24 +27 комфорт 1012.0 1001.1
09 16.08 ЮЗ 1 30 км в посл. час ливневой дождь 10/8 960 м
[Cb cap Ac As]
+20.4 +16.4 78 +25 +25 комфорт 1012.6 1001.6
12 16.08 СЗ 1 45 км {ливн. осадки} 9/9 800 м
[Cb cap]
+21.6 +16.1 71 +25 +26 комфорт 1012.8 1001.9
15 16.08 ЮЗ 1 50 км 9/4 1000 м
[Sc Ac trans Ci fib]
+19.0 +15.1 78 +21 +21 комфорт 1013.1 1002.0 +22.8 0.3
18 16.08 штиль 0 10 км 9/5 1000 м
[Sc Ac trans]
+15.2 +13.7 91 +15 +15 1013.0 1001.9
21 16.08 В 1 10 км слаб. ливневой дождь 10/10 600 м
[Cb cap]
+15.1 +13.9 93 +16 +16 1013.6 1002.4
00 17.08 ЮВ 1 27 км {ливн. осадки} 10/10 600 м
[Cb cap]
+14.3 +13.2 93 +15 +15 1015.3 1004.0
03 17.08 штиль 0 50 км туман на расстоянии 9/3 1000 м
[Sc Ac trans Ci fib]
+15.5 +14.5 94 +15 +16 1016.6 1005.4 +12.6 1
06 17.08 В 1 45 км {туман} 9/5 1000 м
[Sc Ac trans Ci fib]
+20.0 +10.4 54 +23 +25 комфорт 1017.3 1006.2
09 17.08 СЗ 2 50 км 9/9 600 м
[Cu Sc]
+21.0 +9.5 48 +23 +24 комфорт 1017.6 1006.6
12 17.08 СЗ 2 50 км 9/5 1000 м
[Sc Ac trans]
+20.6 +9.4 49 +23 +24 комфорт 1017.9 1006.9
15 17.08 штиль 0 50 км 8/1 1000 м
[Sc Ac trans Ci fib]
+19.3 +13.1 67 +20 +21 1018.2 1007.1 +21.5
18 17.08 штиль 0 20 км 8/5 1000 м
[Sc Ac trans]
+12.0 +10.8 92 +11 +11 1019.1 1007.7
21 17.08 СЗ 1 20 км 5/0
[Ac trans Ci fib]
+9.7 +8.6 93 +9 +9 1020.0 1008.5
00 18.08 штиль 0 50 км 8/3 1000 м
[Sc Ac trans Ci fib]
+9.1 +8.0 93 +8 +8 1021.1 1009.6
03 18.08 СЗ 1 50 км 5/1 1000 м
[Sc Ac trans Cc]
+13.1 +9.4 78 +13 +15 1021.7 1010.3 +8.1
06 18.08 С 1 50 км 3/1 600 м
[Cu hum Ci fib]
+19.9 +10.3 54 +22 +30 комфорт 1022.1 1011.0
09 18.08 СВ 2 50 км 5/4 600 м
[Cu hum Ci fib]
+22.1 +8.4 41 +23 +29 комфорт 1022.0 1011.0
12 18.08 СВ 2 50 км 8/6 600 м
[Cu hum Ci fib]
+22.4 +8.8 42 +24 +25 комфорт 1022.8 1011.8
15 18.08 штиль 0 50 км 9/5 1000 м
[Sc Ac trans Ci fib]
+18.0 +12.8 72 +18 +18 1023.9 1012.7 +22.9
18 18.08 СЗ 1 20 км 9/6 1000 м
[Sc Ac trans Ci fib]
+11.7 +10.3 91 +11 +11 1025.6 1014.1
21 18.08 СЗ 1 20 км 8/0
[Ac trans Ci fib]
+10.0 +8.8 92 +9 +9 1026.9 1015.4
00 19.08 СЗ 1 50 км 5/0
[Ac trans Ci fib]
+8.7 +7.6 93 +8 +8 1028.2 1016.6
03 19.08 штиль 0 45 км 9/0
[Ac trans Ci fib]
+14.3 +10.5 78 +14 +16 1029.0 1017.6 +8.5
06 19.08 В 1 50 км 9/3 1000 м
[Sc Ac trans Ci fib]
+19.0 +10.3 57 +21 +25 комфорт 1028.8 1017.6
09 19.08 ЮВ 2 50 км 5/3 600 м
[Cu hum Ci fib]
+21.2 +8.5 44 +22 +28 комфорт 1027.4 1016.3

 

Местоположение метеостанции Ивдель (Свердловская область, Россия): широта 60.68 долгота 60.45 высота над уровнем моря 94 м.

В архиве по умолчанию представлена погода в Ивделе за последнюю неделю. Архивные данные за месяц целиком и за предыдущие месяцы, начиная с января 2011 года, Вы можете получить, выбрав интересующий диапазон дат из раскрывающегося списка и нажав кнопку "Ввод!".


*Определитесь, кто Вы:
робот инопланетянин человек

Внимание! Время в таблицах - всемирное. Для получения местного времени необходимо прибавить поправку, которая равна 5 ч.

Смотрите также архив погоды в соседних городах и на ближайших метеорологических станциях:

Погода в Североуральске (Свердловская область, Россия) (56 км)
Погода в Бурмантово (Свердловская область, Россия) (67 км)
Погода в Атымье (Свердловская область, Россия) (103 км)
Погода в Карпинске (Свердловская область, Россия) (106 км)
Погода в Серове (Свердловская область, Россия) (120 км)
Погода в Кытлыме (Свердловская область, Россия) (148 км)
Погода в Югорске (Ханты-Мансийский АО, Россия) (172 км)
Погода в Гарях (Свердловская область, Россия) (174 км)
Погода в Агирише (Ханты-Мансийский АО, Россия) (195 км)
Погода в Няксимволе (Ханты-Мансийский АО, Россия) (196 км)

Пояснения к столбцам:

Ветер - указаны скорость ветра в м/с - средняя за 10 мин, порывы в срок и между сроками (в фигурных скобках) и направление, откуда дует ветер: С - северный, СВ - северо-восточный, В - восточный, ЮВ - юго-восточный, Ю - южный, ЮЗ - юго-западный, З - западный, СЗ - северо-западный.
Видимость - горизонтальная дальность видимости в метрах или километрах. При видимости от 1 до 10 км при отсутствии осадков обычно наблюдается дымка, при ухудшении видимости до 1 км и менее - туман. В сухую погоду видимость может ухудшаться дымом, пылью или мглою.
Явления - указаны атмосферные явления, наблюдавшиеся в срок или в последний час перед сроком; фигурными скобками обозначены явления, наблюдавшиеся между сроками (за 1-3 часа до срока); квадратными скобками обозначены град или гололедные отложения с указанием их диаметра в мм.
Облачность - указаны через наклонную черту общая и нижняя облачность в баллах и высота нижней границы облаков в метрах; квадратными скобками обозначены формы облаков: Ci - перистые, Cs - перисто-слоистые, Cc - перисто-кучевые, Ac - высококучевые, As - высокослоистые, Sc - слоисто-кучевые, Ns - слоисто-дождевые, Cu - кучевые, Cb - кучево-дождевые. Подробнее классификацию облаков см. в Атласе облаков (PDF).
T - Температура воздуха - температура, измеренная на высоте 2 м над землей.
Td - Температура точки росы - температура, при понижении до которой содержащийся в воздухе водяной пар достигнет насыщения.
f - Относительная влажность воздуха - влажноcть воздуха, измеренная на высоте 2 м над землей.
Te - Эффективная температура - температура, которую ощущает одетый по сезону человек в тени. Характеристика душности погоды. При расчете учитывается влияние влажности воздуха и скорости ветра на теплоощущения человека.
Tes - Эффективная температура на солнце - температура, которую ощущает человек, с поправкой на солнечный нагрев. Характеристика знойности погоды. Зависит от высоты солнца над горизонтом, облачности и скорости ветра. Ночью, в пасмурную погоду, а также при ветре 12 м/с и более поправка равна нулю.
P - Атмосферное давление - приведенное к уровню моря атмосферное давление.
Po - Атмосферное давление - измеренное на уровне метеостанции атмосферное давление.
Tmin - Минимальная температура - минимум температуры воздуха на высоте 2 м над землей.
Tmax - Максимальная температура - максимум температуры воздуха на высоте 2 м над землей.
R - Количество осадков - Количество выпавших осадков за период времени, мм. При наведении курсора мыши на число - период времени, за который выпало указанное количество осадков.
R24 - Количество осадков - Количество выпавших осадков за 24 часа, мм.
S - Снежный покров - Высота снежного покрова, см. При наведении курсора мыши на число - состояние снежного покрова и степень покрытия местности в баллах.